Capo Bellavista, Italy

1:28 PM CEST on April 25, 2017 (GMT +0200)
Capo Bellavista

Weather History for LIEB - October, 2011

Change the Weather History Date:

Thursday, October 27, 2011

  Actual Average Record
Temperature  
Mean Temperature 65 °F -  
Max Temperature 72 °F 65 °F - ()
Min Temperature 58 °F 54 °F - ()
Growing Degree Days 15 (Base 50)    
Moisture  
Dew Point 52 °F    
Average Humidity 64    
Maximum Humidity 82    
Minimum Humidity 47    
Precipitation  
Precipitation 0.00 in 0.08 in - ()
Sea Level Pressure  
Sea Level Pressure 30.03 in    
Wind  
Wind Speed 8 mph ()    
Max Wind Speed 14 mph    
Max Gust Speed -    
Visibility 7.9 miles    
Events      
T = Trace of Precipitation, MM = Missing Value Source: Averaged Metar Reports

Daily Weather History Graph

Daily Weather History Graph

Search for Another Location

Airport or City:

Trip Planner

Search our weather history database for the weather conditions in past years. The results will help you decide how hot, cold, wet, or windy it might be!

Date:

Astronomy

Oct. 27, 2011 Rise Set
Actual Time 7:43 AM CEST 6:25 PM CEST
Civil Twilight 7:16 AM CEST 6:53 PM CEST
Nautical Twilight 6:44 AM CEST 7:25 PM CEST
Astronomical Twilight 6:12 AM CEST 7:56 PM CEST
Moon 8:26 AM CEST (10/27) 6:41 PM CEST (10/27)
Length of Visible Light 11h 37m
Length of Day
10h 41m
New Moon, 1% of the Moon is Illuminated
Oct 27
New Moon
Nov 2
First Quarter
Nov 10
Full
Nov 18
Last Quarter
Nov 25
New

Hourly Weather History & Observations

Time (CEST) Temp. Dew Point Humidity Pressure Visibility Wind Dir Wind Speed Gust Speed Precip Events Conditions
12:55 AM 60.8 °F 46.4 °F 59% 30.01 in - WNW 13.8 mph - N/A   Clear
1:55 AM 60.8 °F 46.4 °F 59% 30.01 in - WNW 12.7 mph - N/A   Clear
2:00 AM 61 °F 46 °F 47% 30.03 in 12 mi WNW 12.7 mph - -   Scattered Clouds
2:55 AM 60.8 °F 44.6 °F 55% 30.01 in - NW 6.9 mph - N/A   Clear
4:55 AM 60.8 °F 44.6 °F 55% 30.01 in - WNW 9.2 mph - N/A   Clear
6:55 AM 59.0 °F 44.6 °F 59% 30.01 in - NNW 6.9 mph - N/A   Clear
8:00 AM 59 °F 46 °F 52% 30.01 in 12 mi NW 9.2 mph - -   Scattered Clouds
8:55 AM 59.0 °F 48.2 °F 67% 30.01 in 6.2 mi NW 12.7 mph - N/A   Partly Cloudy
9:55 AM 59.0 °F 46.4 °F 63% 30.04 in 6.2 mi WNW 9.2 mph - N/A   Scattered Clouds
10:55 AM 60.8 °F 48.2 °F 63% 30.04 in 6.2 mi WNW 4.6 mph - N/A   Scattered Clouds
11:55 AM 64.4 °F 51.8 °F 64% 30.04 in 6.2 mi East 1.2 mph - N/A   Scattered Clouds
12:55 PM 69.8 °F 57.2 °F 64% 30.04 in 6.2 mi ESE 4.6 mph - N/A   Scattered Clouds
2:00 PM 70 °F 58 °F 56% 30.02 in 12 mi ESE 4.6 mph - -   Partly Cloudy
2:55 PM 71.6 °F 59.0 °F 64% 30.01 in 6.2 mi South 11.5 mph - N/A   Scattered Clouds
3:55 PM 69.8 °F 55.4 °F 60% 30.01 in 6.2 mi South 11.5 mph - N/A   Partly Cloudy
4:55 PM 68.0 °F 55.4 °F 64% 30.01 in - South 10.4 mph - N/A   Clear
5:55 PM 68.0 °F 53.6 °F 60% 30.01 in - South 10.4 mph - N/A   Clear
6:55 PM 66.2 °F 55.4 °F 68% 30.04 in - SSE 6.9 mph - N/A   Clear
7:55 PM 64.4 °F 55.4 °F 73% 30.04 in - SSE 5.8 mph - N/A   Clear
8:00 PM 64 °F 55 °F 65% 30.03 in 12 mi SSE 5.8 mph - -   Scattered Clouds
8:55 PM 64.4 °F 57.2 °F 77% 30.04 in - SE 3.5 mph - N/A   Clear
9:55 PM 64.4 °F 57.2 °F 77% 30.04 in 6.2 mi SE 3.5 mph - N/A   Partly Cloudy
10:55 PM 64.4 °F 57.2 °F 77% 30.06 in 6.2 mi SE 4.6 mph - N/A   Partly Cloudy
11:55 PM 62.6 °F 57.2 °F 82% 30.06 in 6.2 mi South 4.6 mph - N/A   Scattered Clouds